Weather History for Darlington, SC

Change the Weather History Date:

Saturday, April 6, 2013

  Actual Average (KFLO) Record (KFLO)
Temperature  
Mean Temperature 54 °F 61 °F  
Max Temperature 71 °F 74 °F 90 °F (1967)
Min Temperature 37 °F 48 °F 32 °F (2011)
Degree Days  
Heating Degree Days 11 6  
Month to date heating degree days 36  
Since 1 July heating degree days 2412  
Cooling Degree Days 0 2  
Month to date cooling degree days 9  
Year to date cooling degree days 33  
Growing Degree Days 4 (Base 50)    
Moisture  
Dew Point 38 °F    
Average Humidity 55    
Maximum Humidity 87    
Minimum Humidity 27    
Precipitation  
Precipitation 0.00 in 0.08 in 0.66 in (1963)
Month to date precipitation 0.54  
Year to date precipitation 10.02  
Sea Level Pressure  
Sea Level Pressure 30.17 in    
Wind  
Wind Speed 4 mph (East)    
Max Wind Speed 12 mph    
Max Gust Speed 17 mph    
Visibility 10 miles    
Events      
T = Trace of Precipitation, MM = Missing Value Source: NWS Daily Summary

Daily Weather History Graph

Daily Weather History Graph

Search for Another Location

Airport:

Trip Planner

Search our weather history database for the weather conditions in past years. The results will help you decide how hot, cold, wet, or windy it might be!

Date:

Astronomy

Apr. 06, 2013 Rise Set
Actual Time 6:59 AM EDT 7:44 PM EDT
Civil Twilight 6:34 AM EDT 8:10 PM EDT
Nautical Twilight 6:04 AM EDT 8:40 PM EDT
Astronomical Twilight 5:33 AM EDT 9:11 PM EDT
Moon 4:33 AM EDT (4/6) 4:19 PM EDT (4/6)
Length of Visible Light 13h 36m
Length of Day
12h 45m
Waning Crescent, 15% of the Moon is Illuminated
Apr 6
Waning Crescent
Apr 10
New
Apr 18
First Quarter
Apr 25
Full
May 2
Last Quarter

Hourly Weather History & Observations

Time (EDT) Temp. Windchill Dew Point Humidity Pressure Visibility Wind Dir Wind Speed Gust Speed Precip Events Conditions
12:15 AM 44.6 °F - 41.0 °F 87% 30.05 in 10.0 mi Calm Calm - N/A   Clear
12:35 AM 46.4 °F - 39.2 °F 76% 30.05 in 10.0 mi Calm Calm - N/A   Clear
12:55 AM 44.6 °F - 39.2 °F 81% 30.05 in 10.0 mi Calm Calm - N/A   Clear
1:15 AM 42.8 °F - 39.2 °F 87% 30.06 in 10.0 mi Calm Calm - N/A   Clear
1:35 AM 42.8 °F - 37.4 °F 81% 30.06 in 10.0 mi Calm Calm - N/A   Clear
1:55 AM 44.6 °F - 39.2 °F 81% 30.06 in 10.0 mi Calm Calm - N/A   Clear
2:15 AM 44.6 °F 43.1 °F 37.4 °F 76% 30.07 in 10.0 mi WSW 3.5 mph - N/A   Clear
2:35 AM 42.8 °F 41.1 °F 37.4 °F 81% 30.07 in 10.0 mi WSW 3.5 mph - N/A   Clear
2:55 AM 42.8 °F - 37.4 °F 81% 30.07 in 10.0 mi Calm Calm - N/A   Clear
3:15 AM 42.8 °F - 37.4 °F 81% 30.07 in 10.0 mi Calm Calm - N/A   Clear
3:35 AM 42.8 °F - 37.4 °F 81% 30.07 in 10.0 mi Calm Calm - N/A   Clear
3:55 AM 41.0 °F - 37.4 °F 87% 30.08 in 10.0 mi Calm Calm - N/A   Clear
4:15 AM 41.0 °F 39.0 °F 35.6 °F 81% 30.08 in 10.0 mi NNW 3.5 mph - N/A   Clear
4:35 AM 42.8 °F - 35.6 °F 76% 30.09 in 10.0 mi Calm Calm - N/A   Clear
4:55 AM 39.2 °F - 35.6 °F 87% 30.09 in 10.0 mi Calm Calm - N/A   Clear
5:15 AM 39.2 °F - 35.6 °F 87% 30.10 in 10.0 mi Calm Calm - N/A   Clear
5:35 AM 42.8 °F - 35.6 °F 76% 30.10 in 8.0 mi Calm Calm - N/A   Clear
5:55 AM 39.2 °F - 35.6 °F 87% 30.11 in 10.0 mi Calm Calm - N/A   Clear
6:15 AM 39.2 °F - 35.6 °F 87% 30.12 in 10.0 mi Calm Calm - N/A   Clear
6:35 AM 37.4 °F 33.8 °F 33.8 °F 87% 30.13 in 10.0 mi NNW 4.6 mph - N/A   Clear
6:55 AM 42.8 °F 38.6 °F 35.6 °F 76% 30.14 in 10.0 mi North 6.9 mph - N/A   Clear
7:15 AM 42.8 °F 38.0 °F 35.6 °F 76% 30.15 in 10.0 mi North 8.1 mph - N/A   Clear
7:35 AM 42.8 °F 37.5 °F 35.6 °F 76% 30.16 in 10.0 mi North 9.2 mph - N/A   Clear
7:55 AM 44.6 °F 39.7 °F 37.4 °F 76% 30.17 in 10.0 mi North 9.2 mph - N/A   Clear
8:15 AM 48.2 °F - 37.4 °F 66% 30.18 in 10.0 mi NNE 9.2 mph - N/A   Clear
8:35 AM 50.0 °F - 37.4 °F 62% 30.19 in 10.0 mi NNE 9.2 mph - N/A   Clear
8:55 AM 51.8 °F - 37.4 °F 58% 30.19 in 10.0 mi NE 10.4 mph - N/A   Clear
9:15 AM 51.8 °F - 37.4 °F 58% 30.20 in 10.0 mi NE 11.5 mph - N/A   Clear
9:35 AM 53.6 °F - 39.2 °F 58% 30.20 in 10.0 mi NE 11.5 mph - N/A   Clear
10:15 AM 57.2 °F - 39.2 °F 51% 30.22 in 10.0 mi NE 9.2 mph - N/A   Clear
10:35 AM 59.0 °F - 39.2 °F 48% 30.22 in 10.0 mi NE 9.2 mph - N/A   Clear
10:55 AM 60.8 °F - 41.0 °F 48% 30.22 in 10.0 mi NE 9.2 mph 17.3 mph N/A   Clear
11:15 AM 62.6 °F - 41.0 °F 45% 30.23 in 10.0 mi NE 11.5 mph - N/A   Clear
11:35 AM 62.6 °F - 41.0 °F 45% 30.24 in 10.0 mi ENE 10.4 mph - N/A   Clear
11:55 AM 64.4 °F - 42.8 °F 45% 30.23 in 10.0 mi ENE 11.5 mph - N/A   Clear
12:15 PM 64.4 °F - 41.0 °F 42% 30.24 in 10.0 mi East 11.5 mph 17.3 mph N/A   Clear
12:35 PM 66.2 °F - 41.0 °F 40% 30.23 in 10.0 mi ENE 11.5 mph - N/A   Clear
12:55 PM 66.2 °F - 41.0 °F 40% 30.23 in 10.0 mi East 8.1 mph - N/A   Clear
1:15 PM 68.0 °F - 39.2 °F 35% 30.23 in 10.0 mi East 11.5 mph - N/A   Clear
1:35 PM 68.0 °F - 39.2 °F 35% 30.23 in 10.0 mi SE 6.9 mph - N/A   Clear
1:55 PM 69.8 °F - 39.2 °F 33% 30.23 in 10.0 mi East 6.9 mph - N/A   Clear
2:15 PM 69.8 °F - 39.2 °F 33% 30.22 in 10.0 mi East 9.2 mph - N/A   Clear
2:35 PM 69.8 °F - 39.2 °F 33% 30.22 in 10.0 mi ESE 5.8 mph - N/A   Clear
2:55 PM 69.8 °F - 39.2 °F 33% 30.21 in 10.0 mi NE 4.6 mph - N/A   Clear
3:15 PM 69.8 °F - 39.2 °F 33% 30.21 in 10.0 mi East 10.4 mph - N/A   Clear
3:35 PM 71.6 °F - 39.2 °F 31% 30.20 in 10.0 mi East 4.6 mph - N/A   Clear
3:55 PM 69.8 °F - 37.4 °F 31% 30.19 in 10.0 mi East 8.1 mph - N/A   Clear
4:15 PM 69.8 °F - 37.4 °F 31% 30.18 in 10.0 mi ESE 8.1 mph - N/A   Clear
4:35 PM 69.8 °F - 35.6 °F 28% 30.18 in 10.0 mi SE 4.6 mph - N/A   Clear
4:55 PM 69.8 °F - 37.4 °F 31% 30.18 in 10.0 mi SSW 3.5 mph - N/A   Clear
5:15 PM 71.6 °F - 37.4 °F 29% 30.18 in 10.0 mi ESE 3.5 mph - N/A   Clear
5:35 PM 71.6 °F - 35.6 °F 27% 30.18 in 10.0 mi ESE 6.9 mph - N/A   Clear
5:55 PM 69.8 °F - 35.6 °F 28% 30.18 in 10.0 mi Calm Calm - N/A   Clear
6:15 PM 69.8 °F - 35.6 °F 28% 30.19 in 10.0 mi ENE 4.6 mph - N/A   Clear
6:35 PM 69.8 °F - 37.4 °F 31% 30.19 in 10.0 mi ESE 5.8 mph - N/A   Clear
6:55 PM 69.8 °F - 37.4 °F 31% 30.19 in 10.0 mi East 6.9 mph - N/A   Clear
7:15 PM 66.2 °F - 37.4 °F 35% 30.19 in 10.0 mi East 5.8 mph - N/A   Clear
7:35 PM 64.4 °F - 39.2 °F 40% 30.20 in 10.0 mi ENE 6.9 mph - N/A   Clear
7:55 PM 62.6 °F - 39.2 °F 42% 30.20 in 10.0 mi East 5.8 mph - N/A   Clear
8:15 PM 59.0 °F - 39.2 °F 48% 30.20 in 10.0 mi East 5.8 mph - N/A   Clear
8:35 PM 59.0 °F - 39.2 °F 48% 30.21 in 10.0 mi East 5.8 mph - N/A   Clear
8:55 PM 60.8 °F - 39.2 °F 45% 30.22 in 10.0 mi SSE 8.1 mph - N/A   Clear
9:15 PM 57.2 °F - 39.2 °F 51% 30.24 in 10.0 mi SE 8.1 mph - N/A   Clear
9:35 PM 57.2 °F - 37.4 °F 48% 30.24 in 10.0 mi SSE 9.2 mph - N/A   Clear
9:55 PM 57.2 °F - 35.6 °F 44% 30.25 in 10.0 mi SSE 9.2 mph - N/A   Clear
10:15 PM 55.4 °F - 35.6 °F 47% 30.25 in 10.0 mi SSE 8.1 mph - N/A   Clear
10:35 PM 55.4 °F - 33.8 °F 44% 30.26 in 10.0 mi SE 9.2 mph - N/A   Clear
10:55 PM 53.6 °F - 33.8 °F 47% 30.27 in 10.0 mi SSE 8.1 mph - N/A   Clear
11:15 PM 53.6 °F - 33.8 °F 47% 30.27 in 10.0 mi SE 6.9 mph - N/A   Clear
11:35 PM 51.8 °F - 35.6 °F 54% 30.27 in 10.0 mi SSE 6.9 mph - N/A   Clear
11:55 PM 51.8 °F - 35.6 °F 54% 30.27 in 10.0 mi SE 5.8 mph - N/A   Clear